Location: Trebic
(49.2170°N, 15.8830°E)
Time: 22:32:19
(UTC+02:00)

Transit 2A Rocket - Pass Details

Date: 26 July 2019
Orbit: 590 x 913 km, 66.7° (Epoch: 18 August)

Event Time Altitude Azimuth Distance (km) Brightness Sun altitude
Rises 12:29:02 0° 315° (NW) 3,129 7.9 59.5°
Reaches altitude 10° 12:31:54 10° 301° (WNW) 2,144 7.2 59.6°
Maximum altitude 12:35:34 22° 251° (WSW) 1,426 6.8 59.7°
Drops below altitude 10° 12:39:02 10° 200° (SSW) 2,002 7.7 59.8°
Sets 12:41:37 0° 185° (S) 2,866 8.4 59.9°
